Location: Devore Heights
(34.2372°N, 117.4156°W)
Time: 02:12:23
(UTC+00:00)

Altair - Pass Details

Date: 13 September 2024
Orbit: 1501 x 1682 km, 47.2° (Epoch: 09 October)

Event Time Altitude Azimuth Distance (km) Brightness Sun altitude
Exits shadow 12:26:47 14° 278° (W) 3,585 8.9 -14.1°
Maximum altitude 12:35:07 44° 345° (NNW) 2,188 8.3 -12.4°
Drops below altitude 10° 12:44:43 10° 56° (NE) 3,938 10.8 -10.5°
Sets 12:48:08 0° 63° (ENE) 4,916 11.8 -9.8°
